This is the latest recevied weather packets stored in our database for station/object KI5MKI. If no packets are shown the sender has not sent any weather packets the latest 10 day(s).
| Time | Temp. | Humidity | Pressure | Rain* | Wind** | Luminosity | Snow |
|---|---|---|---|---|---|---|---|
| 1777942599 | 23.33° C | 63% | 1007.5 hPa | 0 mm | - | 8 W/m² | - |
| 1777942296 | 23.33° C | 62% | 1007.4 hPa | 0 mm | - | 12 W/m² | - |
| 1777941993 | 23.89° C | 62% | 1007.5 hPa | 0 mm | - | 18 W/m² | - |
| 1777941690 | 23.89° C | 61% | 1007.5 hPa | 0 mm | - | 25 W/m² | - |
| 1777941387 | 23.89° C | 60% | 1007.4 hPa | 0 mm | - | 33 W/m² | - |
| 1777941084 | 23.89° C | 60% | 1007.7 hPa | 0 mm | - | 42 W/m² | - |
| 1777940780 | 23.89° C | 60% | 1007.5 hPa | 0 mm | - | 52 W/m² | - |
| 1777940479 | 24.44° C | 59% | 1007.4 hPa | 0 mm | - | 63 W/m² | - |
| 1777940175 | 24.44° C | 59% | 1007.6 hPa | 0 mm | - | 69 W/m² | - |
| 1777939873 | 24.44° C | 58% | 1007.6 hPa | 0 mm | - | 69 W/m² | - |
| 1777939570 | 24.44° C | 57% | 1007.3 hPa | 0 mm | - | 80 W/m² | - |
| 1777939268 | 25° C | 56% | 1007.4 hPa | 0 mm | - | 80 W/m² | - |
| 1777938964 | 25° C | 56% | 1007.6 hPa | 0 mm | - | 97 W/m² | - |
| 1777938661 | 25° C | 56% | 1007.7 hPa | 0 mm | - | 82 W/m² | - |
| 1777938358 | 25° C | 55% | 1007.5 hPa | 0 mm | - | 103 W/m² | - |
| 1777938055 | 25° C | 55% | 1007.7 hPa | 0 mm | - | 146 W/m² | - |
| 1777937750 | 25.56° C | 54% | 1007.9 hPa | 0 mm | - | 106 W/m² | - |
| 1777937447 | 25.56° C | 53% | 1008.1 hPa | 0 mm | - | 162 W/m² | - |
| 1777937144 | 25.56° C | 53% | 1007.8 hPa | 0 mm | - | 129 W/m² | - |
| 1777936842 | 25.56° C | 52% | 1007.9 hPa | 0 mm | - | 127 W/m² | - |
| 1777936538 | 26.11° C | 52% | 1008.2 hPa | 0 mm | - | 236 W/m² | - |
| 1777936234 | 26.11° C | 51% | 1008.3 hPa | 0 mm | - | 243 W/m² | - |
| 1777935931 | 26.11° C | 52% | 1008.1 hPa | 0 mm | - | 265 W/m² | - |
| 1777935630 | 25.56° C | 51% | 1008.2 hPa | 0 mm | - | 284 W/m² | - |
| 1777935326 | 26.11° C | 50% | 1008.2 hPa | 0 mm | - | 322 W/m² | - |
* Rain latest hour (hover to see other rain measurements)
** Current wind speed in m/s (hover to see current wind gust speed)